User: anonymous   Login
Location: Lichtensteig
(47.3376°N, 9.0841°E)
Time: 19:59:28
(UTC+00:00)
Language:

FENGYUN 1C DEB - Orbit

View from above orbital plane
View from above orbital plane
View from above satellite
View from above satellite

Ground track
Ground track

The orbit data is extracted from the following two-line orbital elements,

1 31047U 99025BER 21291.55038997  .00000183  00000-0  12618-3 0  9994
2 31047  98.7331 313.0331 0027426 168.7145 345.7710 14.10567675749969
Epoch (UTC): 18 October 2021 13:12:33
Eccentricity: 0.0027426
inclination: 98.7331°
perigee height: 837 km
apogee height: 877 km
right ascension of ascending node: 313.0331°
argument of perigee: 168.7145°
revolutions per day: 14.10567675
mean anomaly at epoch: 345.7710°
orbit number at epoch: 74996

The dashed part of the orbit path shows where the satellite is in the earth's shadow,  

DLR